TimeEDT,TemperatureF,Dew PointF,Humidity,Sea Level PressureIn,VisibilityMPH,Wind Direction,Wind SpeedMPH,Gust SpeedMPH,PrecipitationIn,Events,Conditions,WindDirDegrees,DateUTC
12:53 AM,64.9,63.0,93,30.00,9.0,Calm,Calm,-,N/A,,Mostly Cloudy,0,2013-05-19 04:53:00
1:53 AM,63.0,62.1,97,29.99,4.0,Calm,Calm,-,N/A,,Clear,0,2013-05-19 05:53:00
2:53 AM,63.0,62.1,97,29.98,5.0,Calm,Calm,-,N/A,,Clear,0,2013-05-19 06:53:00
3:21 AM,62.6,62.6,100,30.01,2.5,Calm,Calm,-,N/A,,Clear,0,2013-05-19 07:21:00
3:37 AM,62.6,60.8,94,30.00,3.0,Calm,Calm,-,N/A,,Clear,0,2013-05-19 07:37:00
3:40 AM,62.6,60.8,94,30.00,1.5,Calm,Calm,-,N/A,,Clear,0,2013-05-19 07:40:00
3:42 AM,62.6,60.8,94,30.00,0.8,Calm,Calm,-,N/A,,Mist,0,2013-05-19 07:42:00
3:53 AM,62.1,61.0,96,29.98,0.5,Calm,Calm,-,N/A,Fog,Fog,0,2013-05-19 07:53:00
4:06 AM,62.6,60.8,94,30.01,1.0,Calm,Calm,-,N/A,,Scattered Clouds,0,2013-05-19 08:06:00
4:11 AM,60.8,60.8,100,30.01,3.0,Calm,Calm,-,N/A,,Mostly Cloudy,0,2013-05-19 08:11:00
4:53 AM,63.0,62.1,97,30.00,7.0,Calm,Calm,-,N/A,,Overcast,0,2013-05-19 08:53:00
5:15 AM,62.6,62.6,100,30.03,6.0,Calm,Calm,-,N/A,,Overcast,0,2013-05-19 09:15:00
5:29 AM,62.6,62.6,100,30.03,5.0,Calm,Calm,-,N/A,,Mostly Cloudy,0,2013-05-19 09:29:00
6:25 AM,62.6,62.6,100,30.03,2.0,Calm,Calm,-,0.01,,Partly Cloudy,0,2013-05-19 10:25:00
6:32 AM,62.6,62.6,100,30.03,0.8,Calm,Calm,-,0.01,,Clear,0,2013-05-19 10:32:00
6:53 AM,62.1,61.0,96,30.01,0.5,Calm,Calm,-,0.01,Fog,Fog,0,2013-05-19 10:53:00
7:01 AM,62.6,62.6,100,30.03,2.5,Calm,Calm,-,N/A,,Clear,0,2013-05-19 11:01:00
7:08 AM,62.6,62.6,100,30.03,4.0,Calm,Calm,-,N/A,,Partly Cloudy,0,2013-05-19 11:08:00
8:53 AM,68.0,64.9,90,30.02,10.0,South,4.6,-,N/A,,Overcast,170,2013-05-19 12:53:00
9:53 AM,72.0,66.0,81,30.02,10.0,South,5.8,-,N/A,,Partly Cloudy,190,2013-05-19 13:53:00
10:53 AM,73.9,66.9,79,30.02,10.0,Variable,5.8,-,N/A,,Overcast,0,2013-05-19 14:53:00
11:53 AM,75.0,66.0,73,30.00,10.0,SSW,6.9,-,N/A,,Mostly Cloudy,200,2013-05-19 15:53:00
12:22 PM,77.0,66.2,69,30.03,10.0,South,8.1,-,N/A,,Mostly Cloudy,180,2013-05-19 16:22:00
12:36 PM,75.2,66.2,73,30.03,9.0,South,6.9,-,0.00,Rain,Light Rain,190,2013-05-19 16:36:00
12:44 PM,75.2,66.2,73,30.03,8.0,South,6.9,-,0.00,Rain-Thunderstorm,Light Rain,190,2013-05-19 16:44:00
12:53 PM,73.9,66.9,79,29.99,6.0,SSE,6.9,-,0.01,Rain,Light Rain,160,2013-05-19 16:53:00
1:00 PM,73.4,66.2,78,30.02,6.0,South,8.1,-,0.00,Rain-Thunderstorm,Light Rain,190,2013-05-19 17:00:00
1:10 PM,73.4,66.2,78,30.03,2.5,South,4.6,-,0.06,Rain,Light Rain,180,2013-05-19 17:10:00
1:21 PM,73.4,68.0,83,30.03,8.0,Variable,3.5,-,0.06,Rain,Light Rain,0,2013-05-19 17:21:00
1:31 PM,73.4,68.0,83,30.03,10.0,Calm,Calm,-,0.06,Thunderstorm,Mostly Cloudy,0,2013-05-19 17:31:00
1:53 PM,73.9,68.0,82,30.01,9.0,SSW,15.0,20.7,0.06,Thunderstorm,Thunderstorm,210,2013-05-19 17:53:00
3:53 PM,73.0,66.0,79,29.97,10.0,SSW,6.9,-,N/A,,Partly Cloudy,200,2013-05-19 19:53:00
4:53 PM,75.0,66.0,73,29.96,10.0,South,8.1,-,N/A,,Clear,190,2013-05-19 20:53:00
5:53 PM,73.0,66.0,79,29.97,10.0,SSW,8.1,-,N/A,,Clear,200,2013-05-19 21:53:00
6:53 PM,72.0,64.0,76,29.96,10.0,South,9.2,-,N/A,,Clear,190,2013-05-19 22:53:00
7:53 PM,71.1,60.1,68,29.98,10.0,SW,8.1,-,N/A,,Clear,220,2013-05-19 23:53:00
8:53 PM,68.0,61.0,78,30.00,10.0,Calm,Calm,-,N/A,,Mostly Cloudy,0,2013-05-20 00:53:00
9:53 PM,66.9,61.0,81,29.99,10.0,Calm,Calm,-,N/A,,Partly Cloudy,0,2013-05-20 01:53:00
10:53 PM,66.0,61.0,84,29.99,10.0,Calm,Calm,-,N/A,,Clear,0,2013-05-20 02:53:00
11:53 PM,64.0,61.0,90,29.99,10.0,Calm,Calm,-,N/A,,Clear,0,2013-05-20 03:53:00